FW1417 Weather Reports


Display with metric or nautical units.
time (UTC)temp
F
wind
direction
speed
MPH
gust
MPH
rain 1hr
in
rain 24hr
in
rain mn
in
humidity
%
barometer
mb
20260507065705 53 260 2.0 10.0 0.07 0.37 0.09 85 1006.2
20260507065205 53 299 5.0 10.0 0.07 0.36 0.08 85 1005.8
20260507064705 53 259 2.0 5.0 0.08 0.36 0.08 84 1006.1
20260507064205 53 297 2.0 3.0 0.08 0.36 0.08 84 1006.1
20260507063705 53 274 1.0 5.0 0.07 0.35 0.07 84 1006.2
20260507063205 53 290 1.0 9.0 0.07 0.35 0.07 83 1006.0
20260507062704 53 260 4.0 9.0 0.07 0.35 0.07 83 1006.0
20260507062205 54 292 2.0 9.0 0.06 0.34 0.06 82 1005.9
20260507061705 54 284 2.0 7.0 0.04 0.32 0.04 81 1006.3
20260507061205 54 348 3.0 7.0 0.03 0.31 0.03 81 1005.6
20260507060705 54 62 3.0 7.0 0.02 0.30 0.02 80 1005.5
20260507055704 55 11 2.0 8.0 0.02 0.30 0.02 78 1005.6
20260507055205 55 231 1.0 8.0 0.01 0.29 0.01 77 1006.0
20260507054705 55 323 2.0 8.0 0.00 0.28 0.00 76 1005.7
20260507054205 55 300 4.0 9.0 0.00 0.28 0.00 75 1005.6
20260507053706 55 316 4.0 12.0 0.00 0.28 0.00 74 1005.6
20260507053204 55 298 3.0 12.0 0.00 0.28 0.00 74 1005.6
20260507052704 56 289 5.0 12.0 0.00 0.28 0.00 74 1005.1
20260507052204 56 223 5.0 12.0 0.00 0.28 0.00 74 1005.0
20260507051705 56 311 3.0 10.0 0.00 0.28 0.00 74 1005.1
20260507051209 57 257 3.0 10.0 0.00 0.28 0.00 73 1005.3
20260507050713 57 303 5.0 10.0 0.00 0.28 0.00 73 1005.4
20260507045707 57 275 2.0 7.0 0.00 0.28 0.00 73 1005.5
20260507045207 57 278 2.0 8.0 0.00 0.28 0.00 74 1005.6
20260507044706 57 9 2.0 8.0 0.00 0.28 0.00 73 1005.3
20260507043706 57 273 3.0 8.0 0.00 0.28 0.00 74 1005.3
20260507043206 57 270 2.0 10.0 0.00 0.28 0.00 74 1005.5
20260507042707 57 292 3.0 10.0 0.00 0.28 0.00 74 1005.4
20260507042207 57 313 5.0 9.0 0.00 0.28 0.00 74 1005.5
20260507041706 57 300 4.0 8.0 0.00 0.28 0.00 75 1005.6
20260507041206 57 294 3.0 8.0 0.00 0.28 0.00 75 1005.6
20260507040707 57 281 2.0 10.0 0.00 0.28 0.00 75 1005.6
20260507040208 57 308 4.0 10.0 0.00 0.28 0.00 75 1005.7
20260507035706 57 282 4.0 8.0 0.00 0.28 0.28 76 1005.5
20260507035207 57 271 3.0 8.0 0.00 0.28 0.28 76 1005.6
20260507034706 58 211 1.0 8.0 0.00 0.28 0.28 76 1005.6
20260507034206 58 246 2.0 9.0 0.00 0.28 0.28 77 1005.6
20260507033705 58 350 4.0 9.0 0.00 0.28 0.28 77 1005.6
20260507033206 58 272 4.0 8.0 0.00 0.28 0.28 77 1005.6
20260507032706 58 242 3.0 8.0 0.00 0.28 0.28 77 1005.5
20260507032207 58 264 2.0 8.0 0.00 0.28 0.28 78 1005.7
20260507031207 58 257 3.0 12.0 0.00 0.28 0.28 78 1005.2
20260507030706 58 301 4.0 12.0 0.00 0.28 0.28 79 1005.1
20260507030207 59 338 3.0 14.0 0.00 0.28 0.28 79 1005.4
20260507025706 59 298 7.0 14.0 0.01 0.28 0.28 80 1005.3
20260507025206 59 312 5.0 15.0 0.03 0.28 0.28 81 1005.3
20260507024706 59 274 5.0 15.0 0.05 0.28 0.28 83 1005.5
20260507024207 60 293 7.0 15.0 0.07 0.28 0.28 83 1005.5
20260507023706 61 311 7.0 15.0 0.09 0.28 0.28 86 1005.5
20260507023206 62 34 2.0 9.0 0.21 0.28 0.28 86 1005.3
20260507022706 62 312 5.0 9.0 0.21 0.28 0.28 86 1005.3
20260507022206 63 284 3.0 8.0 0.22 0.28 0.28 86 1005.5
20260507021706 63 276 2.0 14.0 0.25 0.28 0.28 86 1005.4
20260507021206 63 290 7.0 14.0 0.26 0.28 0.28 86 1005.5
20260507020706 64 244 3.0 9.0 0.26 0.28 0.28 86 1005.3
20260507020206 64 202 3.0 9.0 0.26 0.28 0.28 85 1005.0
20260507015706 64 218 4.0 10.0 0.25 0.27 0.27 85 1004.6
20260507015206 65 191 3.0 10.0 0.23 0.25 0.25 85 1005.1
20260507014706 65 245 4.0 10.0 0.21 0.23 0.23 84 1005.1
20260507014206 66 197 2.0 8.0 0.19 0.21 0.21 83 1004.9
20260507013706 66 174 2.0 8.0 0.17 0.19 0.19 82 1005.0
20260507013207 66 264 2.0 8.0 0.05 0.07 0.07 81 1004.9
20260507012706 67 198 0.0 3.0 0.05 0.07 0.07 80 1004.7
20260507012206 67 198 1.0 7.0 0.04 0.06 0.06 79 1004.7
20260507011706 67 192 3.0 9.0 0.01 0.03 0.03 78 1004.6
20260507010706 67 170 4.0 9.0 0.00 0.02 0.02 76 1004.4
20260507005706 67 167 1.0 3.0 0.00 0.02 0.02 75 1004.4
20260507005206 67 167 1.0 8.0 0.00 0.02 0.02 75 1004.4
20260507004206 67 159 3.0 8.0 0.00 0.02 0.02 75 1004.4
20260507003706 67 165 1.0 3.0 0.00 0.02 0.02 75 1004.4
20260507003206 67 148 2.0 5.0 0.00 0.02 0.02 75 1004.3
20260507002706 67 149 2.0 7.0 0.00 0.02 0.02 75 1004.1
20260507001706 68 170 3.0 8.0 0.00 0.02 0.02 76 1004.2
20260507001206 67 156 2.0 7.0 0.00 0.02 0.02 76 1004.3
20260507000706 67 195 3.0 7.0 0.00 0.02 0.02 75 1004.4
20260507000206 67 163 3.0 9.0 0.00 0.02 0.02 75 1004.3
20260506235706 67 205 3.0 9.0 0.00 0.02 0.02 75 1004.2
20260506235206 67 178 2.0 8.0 0.00 0.02 0.02 75 1004.3
20260506234706 67 191 3.0 12.0 0.00 0.02 0.02 75 1004.3
20260506234205 67 131 2.0 12.0 0.00 0.02 0.02 75 1004.1
20260506233706 67 198 2.0 8.0 0.00 0.02 0.02 75 1004.0
20260506233206 68 196 2.0 8.0 0.00 0.02 0.02 75 1003.9
20260506232707 68 177 3.0 8.0 0.00 0.02 0.02 75 1003.9
20260506232206 67 188 2.0 8.0 0.00 0.02 0.02 75 1004.0
20260506231706 67 248 4.0 10.0 0.00 0.02 0.02 75 1004.2
20260506231208 67 212 2.0 12.0 0.00 0.02 0.02 75 1004.1
20260506230706 67 199 3.0 12.0 0.00 0.02 0.02 75 1004.0
20260506230206 67 199 3.0 12.0 0.00 0.02 0.02 75 1004.0
20260506225706 67 201 5.0 12.0 0.00 0.02 0.02 75 1004.1
20260506225206 67 196 4.0 16.0 0.00 0.02 0.02 75 1004.0
20260506224706 67 185 5.0 16.0 0.00 0.02 0.02 75 1003.9
20260506224206 67 211 4.0 16.0 0.00 0.02 0.02 75 1003.8
20260506223707 67 185 5.0 17.0 0.00 0.02 0.02 76 1003.9
20260506223205 67 216 5.0 17.0 0.00 0.02 0.02 76 1003.8
20260506222706 67 228 5.0 10.0 0.00 0.02 0.02 76 1003.7
20260506221705 67 200 5.0 12.0 0.00 0.02 0.02 76 1003.8
20260506221205 67 236 5.0 12.0 0.00 0.02 0.02 76 1003.7
20260506220707 67 231 2.0 13.0 0.00 0.02 0.02 77 1003.7
20260506220207 67 189 5.0 13.0 0.00 0.02 0.02 77 1003.7
20260506215206 67 245 3.0 14.0 0.00 0.02 0.02 77 1003.7
20260506214706 66 201 3.0 13.0 0.00 0.02 0.02 77 1003.7
20260506213707 66 193 3.0 10.0 0.00 0.02 0.02 78 1003.5
20260506213205 66 114 4.0 9.0 0.00 0.02 0.02 78 1003.4
20260506212706 66 208 5.0 9.0 0.00 0.02 0.02 79 1003.4
20260506212206 66 235 3.0 9.0 0.00 0.02 0.02 79 1003.4
20260506211707 66 177 5.0 9.0 0.00 0.02 0.02 79 1003.4
20260506211206 66 195 2.0 9.0 0.00 0.02 0.02 80 1003.4
20260506210706 66 203 3.0 12.0 0.00 0.02 0.02 80 1003.4
20260506210206 65 217 4.0 12.0 0.00 0.02 0.02 81 1003.4
20260506205706 65 234 3.0 10.0 0.00 0.02 0.02 81 1003.3
20260506204707 65 172 4.0 10.0 0.00 0.02 0.02 82 1003.3
20260506203706 65 194 3.0 9.0 0.00 0.02 0.02 83 1003.2
20260506203206 65 171 3.0 9.0 0.00 0.02 0.02 83 1003.2
20260506202706 65 154 4.0 8.0 0.00 0.02 0.02 83 1003.3
20260506202206 65 196 3.0 8.0 0.00 0.02 0.02 83 1003.4
20260506201705 65 171 4.0 8.0 0.00 0.02 0.02 84 1003.4
20260506200706 64 167 3.0 10.0 0.00 0.02 0.02 84 1003.5
20260506195706 64 213 3.0 8.0 0.00 0.02 0.02 83 1003.7
20260506194705 64 184 3.0 8.0 0.00 0.02 0.02 83 1003.9
20260506194205 64 221 3.0 12.0 0.00 0.02 0.02 83 1003.8
20260506193706 64 195 4.0 12.0 0.00 0.02 0.02 82 1003.9
20260506193206 64 166 3.0 13.0 0.00 0.02 0.02 82 1004.1
20260506192705 65 201 3.0 14.0 0.00 0.02 0.02 81 1004.1
20260506192206 65 189 6.0 14.0 0.00 0.02 0.02 80 1004.1
20260506191706 65 165 3.0 12.0 0.00 0.02 0.02 79 1004.1
20260506191205 65 177 5.0 14.0 0.00 0.02 0.02 79 1004.1
20260506185706 66 181 7.0 16.0 0.00 0.02 0.02 75 1004.2
20260506185206 66 173 7.0 14.0 0.00 0.02 0.02 72 1004.2
20260506184706 67 166 7.0 13.0 0.00 0.02 0.02 72 1004.0
20260506183706 67 157 5.0 10.0 0.01 0.02 0.02 71 1003.9
20260506182706 67 144 5.0 10.0 0.01 0.02 0.02 72 1003.9
20260506182206 67 140 6.0 10.0 0.01 0.02 0.02 71 1004.0
20260506181705 68 155 5.0 9.0 0.01 0.02 0.02 72 1004.0
20260506181206 68 149 3.0 7.0 0.01 0.02 0.02 73 1004.3
20260506175705 68 159 2.0 8.0 0.01 0.02 0.02 74 1004.4
20260506174706 67 159 3.0 9.0 0.01 0.02 0.02 75 1004.4
20260506173705 67 156 5.0 10.0 0.01 0.01 0.01 74 1004.3
20260506173206 67 172 4.0 18.0 0.01 0.01 0.01 75 1004.3
20260506172705 66 207 2.0 18.0 0.01 0.01 0.01 74 1004.4
20260506172206 66 167 6.0 15.0 0.01 0.01 0.01 74 1004.4
20260506171705 67 165 7.0 15.0 0.01 0.01 0.01 73 1004.4
20260506171205 67 144 5.0 14.0 0.01 0.01 0.01 73 1004.7
20260506170705 67 179 5.0 13.0 0.01 0.01 0.01 73 1005.0
20260506170205 67 183 6.0 13.0 0.01 0.01 0.01 72 1005.2
20260506165205 68 176 7.0 20.0 0.01 0.01 0.01 70 1005.6
20260506164705 68 178 6.0 14.0 0.01 0.01 0.01 69 1005.5
20260506163705 69 162 4.0 13.0 0.00 0.00 0.00 67 1005.3
20260506163205 69 184 5.0 13.0 0.00 0.00 0.00 66 1005.4
20260506162705 70 204 5.0 12.0 0.00 0.00 0.00 64 1005.4
20260506161706 71 189 7.0 18.0 0.00 0.00 0.00 59 1005.7
20260506161205 71 185 6.0 20.0 0.00 0.00 0.00 58 1005.9
20260506160705 71 210 6.0 20.0 0.00 0.00 0.00 57 1005.8
20260506160205 72 175 7.0 20.0 0.00 0.00 0.00 56 1005.9
20260506155705 72 205 7.0 20.0 0.00 0.00 0.00 56 1005.9
20260506155205 73 184 5.0 20.0 0.00 0.00 0.00 56 1005.8
20260506154705 72 190 6.0 16.0 0.00 0.00 0.00 56 1005.7
20260506154205 72 181 6.0 16.0 0.00 0.00 0.00 57 1005.6
20260506153705 72 158 3.0 15.0 0.00 0.00 0.00 58 1005.7
20260506153205 71 196 5.0 17.0 0.00 0.00 0.00 58 1005.6
20260506152706 71 204 6.0 17.0 0.00 0.00 0.00 59 1005.7
20260506152206 72 187 5.0 17.0 0.00 0.00 0.00 58 1005.8
20260506150705 73 146 9.0 21.0 0.00 0.00 0.00 56 1005.9
20260506150205 73 198 7.0 21.0 0.00 0.00 0.00 56 1005.9
20260506145705 73 202 6.0 16.0 0.00 0.00 0.00 56 1005.9
20260506145205 73 183 7.0 15.0 0.00 0.00 0.00 56 1005.9
20260506144705 73 158 6.0 16.0 0.00 0.00 0.00 56 1005.9
20260506144205 73 111 6.0 16.0 0.00 0.00 0.00 56 1006.0
20260506143705 72 195 4.0 14.0 0.00 0.00 0.00 58 1005.8
20260506143205 72 180 7.0 16.0 0.00 0.00 0.00 58 1005.7
20260506142705 71 191 5.0 16.0 0.00 0.00 0.00 59 1005.9
20260506142205 71 187 7.0 16.0 0.00 0.00 0.00 59 1006.0
20260506141205 72 188 4.0 15.0 0.00 0.00 0.00 59 1005.8
20260506140705 72 181 3.0 15.0 0.00 0.00 0.00 59 1005.9
20260506140205 71 129 5.0 14.0 0.00 0.00 0.00 60 1005.9
20260506135705 71 185 5.0 10.0 0.00 0.00 0.00 60 1005.9
20260506135205 71 200 4.0 13.0 0.00 0.00 0.00 61 1005.9
20260506134704 70 126 6.0 16.0 0.00 0.00 0.00 62 1006.0
20260506134205 70 172 7.0 16.0 0.00 0.00 0.00 62 1006.0
20260506133705 70 175 7.0 13.0 0.00 0.00 0.00 62 1005.9
20260506133206 70 181 6.0 16.0 0.00 0.00 0.00 61 1006.0
20260506132705 70 113 7.0 16.0 0.00 0.00 0.00 62 1006.0
20260506132205 69 192 5.0 12.0 0.00 0.00 0.00 63 1006.2
20260506131705 69 144 6.0 12.0 0.00 0.00 0.00 64 1006.1
20260506130705 69 134 3.0 10.0 0.00 0.00 0.00 64 1005.9
20260506130205 69 178 5.0 12.0 0.00 0.00 0.00 65 1005.9
20260506125705 68 161 5.0 12.0 0.00 0.00 0.00 65 1005.9
20260506125205 68 142 5.0 12.0 0.00 0.00 0.00 66 1005.9
20260506124705 68 145 5.0 12.0 0.00 0.00 0.00 67 1005.9
20260506124205 67 153 4.0 12.0 0.00 0.00 0.00 67 1005.9
20260506123207 67 172 2.0 12.0 0.00 0.00 0.00 68 1006.1
20260506122705 67 167 2.0 13.0 0.00 0.00 0.00 68 1006.1
20260506122205 66 82 5.0 13.0 0.00 0.00 0.00 69 1006.1
20260506121705 66 168 4.0 9.0 0.00 0.00 0.00 69 1006.2
20260506121205 66 92 2.0 13.0 0.00 0.00 0.00 69 1006.4
20260506120205 66 146 2.0 12.0 0.00 0.00 0.00 71 1006.4
20260506115705 66 88 6.0 12.0 0.00 0.00 0.00 71 1006.5
20260506115205 65 141 2.0 10.0 0.00 0.00 0.00 71 1006.4
20260506114705 65 179 3.0 10.0 0.00 0.00 0.00 72 1006.5
20260506114205 65 109 3.0 12.0 0.00 0.00 0.00 72 1006.5
20260506113705 65 130 3.0 12.0 0.00 0.00 0.00 72 1006.5
20260506112705 64 146 3.0 8.0 0.00 0.00 0.00 73 1006.6
20260506112205 64 106 3.0 8.0 0.00 0.00 0.00 74 1006.6
20260506111205 64 168 5.0 9.0 0.00 0.00 0.00 74 1006.4
20260506110705 64 138 5.0 10.0 0.00 0.00 0.00 74 1006.4
20260506110205 64 139 4.0 10.0 0.00 0.00 0.00 75 1006.3
20260506105705 64 133 5.0 10.0 0.00 0.00 0.00 75 1006.3
20260506105204 64 132 2.0 8.0 0.00 0.00 0.00 75 1006.3
20260506104206 63 152 3.0 8.0 0.00 0.00 0.00 75 1006.5
20260506103706 63 134 3.0 9.0 0.00 0.00 0.00 76 1006.4
20260506103205 63 135 4.0 9.0 0.00 0.00 0.00 76 1006.3
20260506102205 63 158 4.0 9.0 0.00 0.00 0.00 76 1006.3
20260506101705 63 144 5.0 10.0 0.00 0.00 0.00 76 1006.3
20260506101205 63 138 5.0 12.0 0.00 0.00 0.00 76 1006.2
20260506100704 63 132 3.0 12.0 0.00 0.00 0.00 76 1006.2
20260506095204 63 151 3.0 10.0 0.00 0.00 0.00 76 1006.2
20260506094704 63 159 6.0 12.0 0.00 0.00 0.00 75 1006.2
20260506094204 63 154 5.0 12.0 0.00 0.00 0.00 76 1006.2
20260506093705 63 142 5.0 12.0 0.00 0.00 0.00 76 1006.2
20260506093205 63 153 4.0 10.0 0.00 0.00 0.00 76 1006.1
20260506092705 63 139 5.0 12.0 0.00 0.00 0.00 76 1006.2
20260506092205 63 150 5.0 12.0 0.00 0.00 0.00 75 1006.2
20260506091705 64 147 6.0 12.0 0.00 0.00 0.00 75 1006.2
20260506091205 64 96 5.0 10.0 0.00 0.00 0.00 75 1006.2
20260506090705 64 143 3.0 10.0 0.00 0.00 0.00 75 1006.3
20260506090204 64 147 5.0 10.0 0.00 0.00 0.00 75 1006.3
20260506085705 64 148 3.0 12.0 0.00 0.00 0.00 75 1006.3
20260506085205 64 145 5.0 12.0 0.00 0.00 0.00 75 1006.4
20260506084705 64 136 5.0 12.0 0.00 0.00 0.00 75 1006.4
20260506084205 64 125 6.0 12.0 0.00 0.00 0.00 75 1006.4
20260506083705 64 148 6.0 12.0 0.00 0.00 0.00 75 1006.4
20260506083205 64 148 6.0 12.0 0.00 0.00 0.00 75 1006.3
20260506082704 64 162 6.0 12.0 0.00 0.00 0.00 75 1006.4
20260506082205 64 146 5.0 12.0 0.00 0.00 0.00 75 1006.5
20260506081704 64 119 6.0 12.0 0.00 0.00 0.00 75 1006.5
20260506081204 64 141 4.0 12.0 0.00 0.00 0.00 74 1006.5
20260506080704 64 130 6.0 12.0 0.00 0.00 0.00 74 1006.5
20260506080205 64 139 5.0 12.0 0.00 0.00 0.00 74 1006.5
20260506073204 65 146 7.0 13.0 0.00 0.00 0.00 72 1006.6
20260506072705 65 169 6.0 13.0 0.00 0.00 0.00 71 1006.5
20260506072205 65 146 7.0 12.0 0.00 0.00 0.00 71 1006.6
20260506071205 65 144 7.0 13.0 0.00 0.00 0.00 70 1006.7
20260506070705 65 121 6.0 13.0 0.00 0.00 0.00 70 1006.8